Regional Weather Roundup
Issued by NWS Newport/Morehead, NC

Current Version | Previous Version | Text Only | Print | Product List | Glossary On
Versions: 1 2 3 4 5 6 7 8 9 10 11 12 13 14 15 16 17 18 19 20 21 22 23 24 25 26 27 28 29 30 31 32 33 34 35 36 37 38 39 40 41 42 43 44 45 46 47 48 49 50
000
ASUS42 KMHX 222222
RWRMHX
WEATHER ROUNDUP FOR EASTERN NORTH CAROLINA
NATIONAL WEATHER SERVICE NEWPORT/MOREHEAD CITY NC
600 PM EDT TUE APR 22 2014

NOTE: "FAIR" INDICATES FEW OR NO CLOUDS BELOW 12,000 FEET
WITH NO SIGNIFICANT WEATHER AND/OR OBSTRUCTIONS TO VISIBILITY

NCZ015>017-031-032-045>047-102-103-222300-
NORTH COAST

CITY           SKY/WX    TMP DP  RH WIND       PRES   REMARKS
EDENTON        MOSUNNY   79  51  37 SW8       29.63S
ELIZABETH CITY MOSUNNY   79  53  40 S8        29.62S
KITTY HAWK     PTCLDY    71  55  56 S6        29.63S
MANTEO         MOSUNNY   67  52  59 S15       29.64F

$$

NCZ045>047-081-094-103-104-222300-
CENTRAL COAST

CITY           SKY/WX    TMP DP  RH WIND       PRES   REMARKS
FRISCO         SUNNY     61  32  33 SW13      29.68F
SWANQUARTER      N/A     70 N/A N/A S7G17     29.62S

$$

NCZ095-097-098-100-101-222300-
SOUTHERN COAST

CITY           SKY/WX    TMP DP  RH WIND       PRES   REMARKS
BEAUFORT       SUNNY     66  57  72 SW14      29.70F
CEDAR ISLAND     N/A     75 N/A N/A SW20      29.71F
JACKSONVILLE   MOSUNNY   77  50  38 S10       29.67F
NEWPORT          N/A     70  55  60 SW6         N/A
PINEY ISLAND   CLEAR     75  51  43 SW15      29.68F
WILMINGTON     SUNNY     78  54  43 SW14      29.70S


$$

NCZ011>013-027>030-043-044-078>080-089-090>093-098-222300-
COASTAL PLAIN

CITY           SKY/WX    TMP DP  RH WIND       PRES   REMARKS
AHOSKIE        PTSUNNY   77  53  43 CALM      29.62F
CLINTON        MOSUNNY   81  54  39 W8G16     29.67F
ELIZABETHTOWN  MOSUNNY   82  48  30 W8        29.68F
GOLDSBORO      MOSUNNY   82  50  33 W10       29.64F
GREENVILLE     PTSUNNY   81  52  36 W8        29.68S
HAVELOCK       SUNNY     73  44  35 SW16G24   29.69F
KENANSVILLE    MOSUNNY   81  46  29 W7        29.68S
KINSTON        PTSUNNY   82  46  28 SW10      29.66F
NEW BERN       MOSUNNY   80  49  33 S12       29.67S
RICHLANDS      MOSUNNY   81  77  89 W8        29.67S
ROANOKE RAPIDS NOT AVBL
ROCKY MOUNT    PTSUNNY   78  53  41 SW6       29.64F
WASHINGTON     PTSUNNY   81  47  30 W7        29.65S
WHITEVILLE     MOSUNNY   82  49  31 SW6       29.69S

$$

AMZ130-135-150-152-154-156-158-170-250-252-270-ANZ085-086-088-633-658-670-222300-
MARINE OBSERVATIONS

STATION/POSITION TIME  TEMP    WIND        PRES    WAVE   SWELL
                       AIR SEA DIR/SP/G            HT/PER HT/PER
                 (UTC) (F)     (DEG/KT/KT) (MB)    (FT/S) (FT/S)
CHESAPEAKE LIGHT 2200   62     180/ 22/ 23 1002.4
BUOY 44014       2200   55 50  190/ 10/ 12 1003.5    4/ 9   3/ 9
DUCK             2200   73 48  200/ 12/ 15 1002.2
2E DUCK          2200      53                N/A     3/ 8
OREGON INLET     2200   62 58  200/ 14/ 16 1004.0
BUOY 44095       2200      51                N/A     4/ 9   2/11
HATTERAS CG      2200   66 56  210/ 10/ 16 1005.1
DIAMOND BUOY     2200   72 76  250/ 21/ 25 1004.7    5/ 8   3/ 8
CAPE LOOKOUT     2200   67     210/ 11/ 16 1005.7
BEAUFORT LAB     2200   65 59  220/  8/ 14 1005.0
30 SE NEW RIVER  2200   70 70  230/ 19/ 23 1006.1    4/ 5   2/ 8
5 SE WRIGHTSVILL 2200   63 60  220/ 16/ 17 1005.8
FRYING PAN BUOY  2200   70 68  230/ 16/ 19 1006.5    4/ 9   2/ 9
BUOY 41001       NOT AVBL
BUOY 41002       NOT AVBL
BUOY 41004       2200   70 70  220/ 17/ 21 1007.5    4/ 4   2/ 8

$$



USA.gov is the U.S. government's official web portal to all federal, state and local government web resources and services.